Location: Antioch Baptist Church
(32.6696°N, 85.7327°W)
Time: 00:31:07
(UTC+00:00)

CZ-4C R/B - Pass Details

Date: 14 July 2020
Orbit: 632 x 1370 km, 63.4° (Epoch: 12 August)

Event Time Altitude Azimuth Distance (km) Brightness Sun altitude
Rises 05:32:40 0° 328° (NNW) 4,001 6.5 -35.6°
Reaches altitude 10° 05:35:14 10° 328° (NNW) 3,127 5.8 -35.6°
Enters shadow 05:41:59 70° 304° (NW) 1,368 3.1 -35.7°
